Content
SEND FEEDBACK

Daily
Averages
Monthly
Summary
United States of America

ALLENSPARK, COLORADO


Home > North America > United States > Colorado
Elevation: 8558 feet     Latitude: 40 12N     Longitude: 105 32W

WEATHER
 
SELECT A DAY
Number of Records: 95,953;   Date Range: 3/4/10 - 12/25/14
 
SHARE

PRINT THIS DATA

[ ← Previous Day ]
WEATHER ALMANAC - JANUARY 3, 2013
[ Next Day → ]
[ °C ]   °F
Weather ElementAverageHighLow
Temperature19.2 °F38.8 °F (2:56 pm)2.5 °F (7:16 am)
Dewpoint3.5 °F11.3 °F (12:56 am)-4.2 °F (1:16 pm)
Humidity58.1 %85 % (2:36 am)17 % (12:56 pm)
Barometer30.22 in30.28 in (1:56 am)30.15 in (2:16 pm)
Wind Speed2.8 mph6.9 mph (10:16 am)
Weather ElementAverage
Visibility10 mi
Wind DirectionESE (103.6 °)

Weather ElementTotal
Precipitation---
Heating Degree Days44.4 (Base 65)
Averaged from 69 records on January 3, 2013
WEATHER CONDITIONS BREAKOUT
WIND DIRECTION BREAKOUT
WEATHER BY HOUR - JANUARY 3, 2013
[ °C ]   °F
Local TimeTemperatureDewpointHumidityBarometerVisibilityWind DirectionWind SpeedGust SpeedPrecipitationEventsConditions
12:36 AM15.6 °F10.8 °F81 %30.27 in10.0 miCalmOvercast
12:56 AM15.6 °F11.3 °F83 %30.26 in10.0 miSSW (200°)4.6 mphOvercast
1:16 AM16.9 °F11.3 °F79 %30.26 in10.0 miCalmOvercast
1:36 AM16.7 °F11.1 °F79 %30.27 in10.0 miCalmOvercast
1:56 AM16.5 °F10.6 °F77 %30.28 in10.0 miCalmOvercast
2:16 AM14.9 °F10.4 °F82 %30.28 in10.0 miCalmMostly Cloudy
2:36 AM13.8 °F10.0 °F85 %30.28 in10.0 miCalmScattered Clouds
2:56 AM10.0 °F6.1 °F84 %30.28 in10.0 miCalmClear
3:16 AM10.6 °F6.1 °F82 %30.27 in10.0 miSouth (180°)3.5 mphClear
3:36 AM8.8 °F3.7 °F80 %30.28 in10.0 miCalmClear
3:56 AM9.9 °F2.7 °F73 %30.28 in10.0 miCalmClear
4:16 AM9.0 °F3.2 °F77 %30.27 in10.0 miCalmClear
4:36 AM7.3 °F2.1 °F79 %30.27 in10.0 miCalmClear
4:56 AM5.4 °F0.9 °F82 %30.27 in10.0 miCalmClear
5:16 AM4.1 °F-0.2 °F82 %30.26 in10.0 miSSW (200°)4.6 mphClear
5:36 AM4.1 °F0.1 °F84 %30.26 in10.0 miCalmClear
5:56 AM4.3 °F0.0 °F82 %30.26 in10.0 miCalmClear
6:16 AM3.6 °F-1.3 °F80 %30.26 in10.0 miCalmClear
6:36 AM4.1 °F0.0 °F83 %30.26 in10.0 miSouth (190°)4.6 mphClear
6:56 AM4.5 °F0.5 °F84 %30.26 in10.0 miSSW (200°)3.5 mphClear
7:16 AM2.5 °F-2.2 °F81 %30.26 in10.0 miCalmClear
7:36 AM3.9 °F-1.5 °F78 %30.25 in10.0 miSSW (210°)3.5 mphClear
7:56 AM4.5 °F-0.4 °F80 %30.25 in10.0 miSSW (200°)5.8 mphClear
8:36 AM11.3 °F4.3 °F73 %30.26 in10.0 miCalmClear
8:56 AM15.4 °F6.8 °F69 %30.25 in10.0 miSouth (180°)3.5 mphClear
9:16 AM19.4 °F5.5 °F55 %30.26 in10.0 miSouth (190°)3.5 mphClear
9:36 AM23.2 °F5.7 °F47 %30.27 in10.0 miSouth (170°)3.5 mphClear
9:56 AM25.9 °F5.0 °F41 %30.26 in10.0 miSouth (190°)5.8 mphClear
10:16 AM27.9 °F5.7 °F39 %30.26 in10.0 miSouth (190°)6.9 mphClear
10:36 AM29.7 °F4.3 °F34 %30.26 in10.0 miSouth (190°)5.8 mphClear
10:56 AM31.8 °F4.8 °F32 %30.25 in10.0 miSSW (200°)6.9 mphClear
11:16 AM32.5 °F3.4 °F29 %30.25 in10.0 miSouth (170°)6.9 mphClear
11:36 AM34.2 °F3.7 °F28 %30.23 in10.0 miSouth (180°)5.8 mphClear
11:56 AM35.1 °F-0.6 °F22 %30.22 in10.0 miSouth (190°)5.8 mphClear
12:16 PM35.6 °F-3.6 °F19 %30.20 in10.0 miSouth (180°)3.5 mphClear
12:36 PM36.5 °F-3.3 °F18 %30.19 in10.0 miSSE (150°)4.6 mphClear
12:56 PM37.4 °F-3.6 °F17 %30.18 in10.0 miSouth (180°)4.6 mphClear
1:16 PM37.6 °F-4.2 °F17 %30.17 in10.0 miSSE (160°)3.5 mphClear
1:36 PM38.1 °F-2.4 °F18 %30.16 in10.0 miSSE (160°)5.8 mphClear
1:56 PM38.3 °F-1.3 °F19 %30.16 in10.0 miSouth (180°)5.8 mphClear
2:16 PM38.5 °F-3.5 °F17 %30.15 in10.0 miSSE (160°)4.6 mphClear
2:36 PM38.5 °F-2.2 °F18 %30.16 in10.0 miSSE (160°)5.8 mphClear
2:56 PM38.8 °F-0.9 °F19 %30.16 in10.0 miSE (140°)5.8 mphClear
3:16 PM38.5 °F0.1 °F20 %30.16 in10.0 miSE (140°)5.8 mphClear
3:36 PM38.3 °F0.0 °F20 %30.17 in10.0 miESE (120°)4.6 mphClear
3:56 PM37.2 °F1.4 °F22 %30.17 in10.0 miESE (110°)4.6 mphClear
4:16 PM35.1 °F2.8 °F26 %30.18 in10.0 miESE (110°)6.9 mphClear
4:36 PM30.6 °F5.5 °F35 %30.18 in10.0 miESE (120°)5.8 mphClear
4:56 PM27.3 °F3.9 °F37 %30.18 in10.0 miCalmClear
5:16 PM26.2 °F6.1 °F42 %30.19 in10.0 miCalmClear
5:36 PM22.1 °F8.2 °F55 %30.19 in10.0 miCalmClear
6:16 PM19.2 °F6.8 °F59 %30.20 in10.0 miSSW (210°)4.6 mphClear
6:36 PM18.5 °F5.9 °F58 %30.20 in10.0 miSSW (200°)4.6 mphClear
6:56 PM19.6 °F5.9 °F55 %30.20 in10.0 miSSW (200°)4.6 mphClear
7:16 PM17.8 °F6.6 °F62 %30.20 in10.0 miCalmClear
7:36 PM16.7 °F5.9 °F63 %30.20 in10.0 miSW (220°)3.5 mphClear
7:56 PM13.8 °F5.0 °F68 %30.19 in10.0 miCalmClear
8:16 PM13.6 °F5.2 °F69 %30.19 in10.0 miCalmClear
8:36 PM12.2 °F5.7 °F75 %30.18 in10.0 miCalmClear
8:56 PM11.8 °F5.5 °F76 %30.18 in10.0 miSSW (200°)3.5 mphClear
9:16 PM11.3 °F5.2 °F76 %30.18 in10.0 miCalmClear
9:36 PM11.8 °F5.2 °F75 %30.18 in10.0 miCalmClear
9:56 PM10.4 °F4.3 °F76 %30.18 in10.0 miSW (220°)3.5 mphClear
10:16 PM11.1 °F4.6 °F75 %30.18 in10.0 miSouth (180°)3.5 mphClear
10:36 PM11.8 °F4.5 °F72 %30.18 in10.0 miSW (220°)3.5 mphClear
10:56 PM9.7 °F3.6 °F76 %30.19 in10.0 miCalmClear
11:16 PM10.0 °F3.2 °F74 %30.19 in10.0 miSSW (200°)3.5 mphClear
11:36 PM10.4 °F4.5 °F77 %30.19 in10.0 miCalmClear
11:56 PM9.1 °F3.6 °F78 %30.18 in10.0 miCalmClear
Hourly data recorded from KEIK, located miles away from Allenspark, Colorado







STORIES FROM OUR PARTNERS